Location: Newark
(49.8348°N, 24.0280°E)
Time: 13:28:41
(UTC+00:00)

Explorer 7 - Pass Details

Date: 22 January 2020
Orbit: 485 x 679 km, 50.3° (Epoch: 25 February)

Event Time Altitude Azimuth Distance (km) Brightness Sun altitude
Rises 22:24:03 0° 228° (SW) 2,546 - -59.7°
Reaches altitude 10° 22:26:18 10° 220° (SW) 1,663 - -59.7°
Maximum altitude 22:29:47 38° 152° (SSE) 752 - -59.8°
Drops below altitude 10° 22:33:19 10° 83° (E) 1,686 - -59.8°
Sets 22:35:37 0° 75° (ENE) 2,588 - -59.8°
